Regional Weather Roundup
Issued by NWS

Home | Current Version | Previous Version | Graphics & Text | Print | Product List | Glossary On
Versions: 1 2 3 4 5 6 7 8 9 10 11 12 13 14 15 16 17 18 19 20 21 22 23 24 25 26 27 28 29 30 31 32 33 34 35 36 37 38 39 40 41 42 43 44 45 46 47 48 49 50
000
ASUS43 KOAX 270210
RWRNE

WEATHER ROUNDUP FOR NEBRASKA
NATIONAL WEATHER SERVICE OMAHA NE
900 PM CDT MON SEP 26 2016

NOTES: SATELLITE DATA IS BEING USED TO AUGMENT CLOUD COVER ABOVE
       12000 FEET.
       "FAIR" INDICATES FEW OR NO CLOUDS BELOW 12,000 FEET WITH NO
       SIGNIFICANT WEATHER AND/OR OBSTRUCTIONS TO VISIBILITY.

  * THESE STATIONS DO NOT REPORT WEATHER SUCH AS RAIN...SNOW OR FOG.

NEZ001>004-019>022-054>056-270300-
NEBRASKA PANHANDLE

CITY           SKY/WX    TMP DP  RH WIND       PRES   REMARKS
SCOTTSBLUFF    CLEAR     57  45  64 NE8       30.26R
ALLIANCE       CLEAR     58  41  53 NW5       30.24R
CHADRON        CLEAR     62  42  47 N5        30.23R
KIMBALL        CLEAR     58  42  54 CALM      30.31R
SIDNEY         LGT RAIN  55  38  52 NW5       30.28R
$$

NEZ057>060-069>072-079>082-270300-
SOUTHWEST NEBRASKA

CITY           SKY/WX    TMP DP  RH WIND       PRES   REMARKS
NORTH PLATTE   CLEAR     56  46  69 CALM      30.18R
IMPERIAL       CLEAR     62  41  46 CALM      30.22R
LEXINGTON      CLEAR     60  43  53 CALM      30.16S
MCCOOK         CLEAR     60  42  51 CALM      30.18R
OGALLALA       CLEAR     57  42  56 CALM      30.21S
$$

NEZ005>010-023>029-035>040-094-270300-
NORTH CENTRAL NEBRASKA

CITY           SKY/WX    TMP DP  RH WIND       PRES   REMARKS
VALENTINE      CLEAR     56  38  50 W7        30.16R
AINSWORTH      CLEAR     56  43  61 W5        30.15S
BROKEN BOW     CLEAR     49  41  74 CALM      30.15S
O`NEILL        CLEAR     57  41  55 SW5       30.12S
ORD            CLEAR     52  43  71 CALM      30.12S
THEDFORD       CLEAR     60  41  48 CALM      30.19S
$$

NEZ041-046>049-061>064-073>077-083>087-270300-
SOUTH CENTRAL NEBRASKA

CITY           SKY/WX    TMP DP  RH WIND       PRES   REMARKS
GRAND ISLAND   CLEAR     59  43  55 NW3       30.14R
AURORA         CLEAR     57  46  67 NW5       30.13R
HASTINGS       CLEAR     61  42  49 CALM      30.15R
HEBRON         PTCLDY    61  43  51 CALM      30.12S
HOLDREGE       CLEAR     59  43  55 CALM      30.16S
KEARNEY *      CLEAR     63  39  42 CALM      30.15R
YORK           PTCLDY    57  45  62 NW3       30.13R
$$

NEZ011>018-030>034-042>045-270300-
NORTHEAST NEBRASKA

CITY           SKY/WX    TMP DP  RH WIND       PRES   REMARKS
NORFOLK        CLEAR     54  42  64 W6        30.10S
ALBION         CLEAR     54  44  68 CALM      30.12S
BLAIR          CLEAR     62  43  48 NW7       30.08S
FREMONT        CLEAR     59  44  56 CALM      30.10R
TEKAMAH        CLEAR     55  45  68 CALM      30.07S
WAYNE          CLEAR     55  44  66 W5        30.09S
$$

NEZ050>053-065>068-078-088>093-270300-
SOUTHEAST NEBRASKA

CITY           SKY/WX    TMP DP  RH WIND       PRES   REMARKS
LINCOLN        CLEAR     59  46  62 N3        30.11R
OMAHA EPPLEY   CLEAR     59  50  72 NW6       30.08R
BEATRICE       CLEAR     61  45  55 SW5       30.11R
FALLS CITY     CLEAR     60  49  66 SW8       30.08S
NEBRASKA CITY  CLEAR     61  35  38 SW7       30.09R
PLATTSMOUTH    CLEAR     63  38  39 W6        30.08R
$$

NEZ044-045-051>053-067-270300-
OMAHA AREA

CITY           SKY/WX    TMP DP  RH WIND       PRES   REMARKS
OMAHA EPPLEY   CLEAR     59  50  72 NW6       30.08R
BLAIR          CLEAR     62  43  48 NW7       30.08S
FREMONT        CLEAR     59  44  56 CALM      30.10R
MILLARD        CLEAR     60  49  69 CALM      30.08R
OFFUTT AFB     CLEAR     58  46  66 NW5       30.07R
PLATTSMOUTH    CLEAR     63  38  39 W6        30.08R
WAHOO          FAIR      60  43  52 NW7       30.09S
$$



USA.gov is the U.S. government's official web portal to all federal, state and local government web resources and services.